Regional Weather Roundup
Issued by NWS Sioux Falls, SD

Home | Current Version | Previous Version | Graphics & Text | Print | Product List | Glossary On
Versions: 1 2 3 4 5 6 7 8 9 10 11 12 13 14 15 16 17 18 19 20 21 22 23 24 25 26 27 28 29 30 31 32 33 34 35 36 37 38 39 40 41 42 43 44 45 46 47 48 49 50
472
ASUS43 KFSD 281910
RWRFSD

WEATHER ROUNDUP FOR SE SOUTH DAKOTA/SW MINNESOTA/NW IOWA
NATIONAL WEATHER SERVICE SIOUX FALLS SD
200 PM CDT WED SEP 28 2016

NOTE: "FAIR" INDICATES FEW OR NO CLOUDS BELOW 12,000 FEET WITH NO
SIGNIFICANT WEATHER AND OR OBSTRUCTIONS TO VISIBILITY.


SDZ038>040-050-052>070-282000-
SOUTHEAST SOUTH DAKOTA

CITY           SKY/WX    TMP DP  RH WIND       PRES   REMARKS
BROOKINGS      SUNNY     59  45  59 NE9       30.26S
CHAMBERLAIN    SUNNY     66  47  51 CALM      30.27S
HURON          SUNNY     63  43  48 NE8       30.27S
MADISON        FAIR      59  45  58 NE10      30.26R
MITCHELL       SUNNY     63  45  51 NE6       30.28S
SIOUX FALLS    MOSUNNY   64  47  53 N10       30.25S
WINNER         FAIR      69  39  33 VRB6      30.27S
YANKTON        SUNNY     63  45  51 N12       30.23F
$$

MNZ071-072-080-081-089-090-097-098-282000-
SOUTHWEST MINNESOTA

CITY           SKY/WX    TMP DP  RH WIND       PRES   REMARKS
FAIRMONT       CLOUDY    59  46  62 N14G23    30.21R
JACKSON        CLOUDY    61  45  55 N10G20    30.22S
LUVERNE        PTSUNNY   54  43  66 NE7       30.26S
MARSHALL       CLOUDY    56  46  69 N10       30.27S
MONTEVIDEO     CLOUDY    64  48  55 N8        30.27S
PIPESTONE      MOSUNNY   55  45  67 NE8       30.26R
REDWOOD FALLS  PTSUNNY   65  47  52 N12       30.23R
TRACY          CLOUDY    58  48  70 N9        30.26S
WINDOM         CLOUDY    59  46  63 N14       30.23S
WORTHINGTON    CLOUDY    56  46  69 N13       30.24S
$$

IAZ001>003-012>014-020>022-031-032-NEZ013-014-SDZ071-282000-
NORTHWEST IOWA

CITY           SKY/WX    TMP DP  RH WIND       PRES   REMARKS
CHEROKEE       PTSUNNY   59  49  69 NW9       30.22S
DENISON        PTSUNNY   59  46  63 N12G20    30.18F
ESTHERVILLE    CLOUDY    58  48  69 N15G24    30.20S
LE MARS        PTSUNNY   57  46  67 NE8G15    30.25S
ORANGE CITY    CLOUDY    55  46  71 N7        30.25R
SHELDON        CLOUDY    59  46  63 N12       30.23S
SIOUX CITY     SUNNY     62  47  57 N9        30.23S
SPENCER        CLOUDY    60  48  64 N15       30.21S
STORM LAKE     SUNNY     59  46  63 N14G21    30.20S
$$

ABBREVIATIONS USED IN REMARKS
   TC - TEMPERATURE IN CELSIUS
  WCI - WIND CHILL INDEX
   HX - HEAT INDEX
  VSB - VISIBILITY





USA.gov is the U.S. government's official web portal to all federal, state and local government web resources and services.